STARLINK-30382, 57786

Orbit data source: Space-Track

STARLINK-30382, 57786 is a payload satellite owned by SpaceX/Seattle (US) in LEO that was launched on Mon, 04 Sep 2023 UTC via an FALCON 9 launch vehicle from the Air Force Eastern Test Range (AFETR). Payload-class satellites include a variety of spacecraft equipped with specific instruments for various scientific and technological missions. These include communications satellites like Starlink; space stations such as the ISS; scientific satellites like the Hubble; Earth observation satellites from companies like Planet Labs, Umbra, and HawkEye 360; GPS; miniature CubeSats for education and research; and military/defense satellites.

Loading next visibility...
Identifier
57786, 2023-134R
Orbit
LEO
Country
Flag of USUS
Related business
Manufacturer
SpaceX/Seattle
Mission
Operational Commercial Communications
Bus & Motor
STARLINK V2M, Unknown motor
Mass
730 kg wet, ~700 kg dry
Launch date (UTC)
2023-09-04 (2 years ago)
Launch vehicle
FALCON 9
Launch site
Air Force Eastern Test Range (AFETR)
Object type
Payload
Rocket body
Debris
Shape & HBR
Box + 2 Pan, 17.7 m
Radar Cross Section
33.884 m², Large (>1 m²)

Expand to show TLE details & history
Last TLE update: 18 hours ago

TLE from 18 hours ago
0 STARLINK-30382
1 57786U 23134R   25346.61219209 -.00002099  00000-0 -14039-3 0  9998
2 57786  43.0048 310.5681 0001209 268.3827  91.6877 15.02530641126370
Epoch: 2025-12-12T14:41Z
TLE epoch observation values (Epoch: 2025-12-12T14:41:33.396Z)
Latitude
-0.00002°
Longitude
8.62762°
Altitude
558.899 km
Speed
7.584 km/s
True Right ascension
20h 42m 16s
True Declination
0° 00' 00"
Sunlit
Object was in daylight at epoch
Visualization orbit readout
Latitude
Unknown
Longitude
Unknown
Altitude
Unknown
Speed
Unknown
Apparent Right ascension
Unknown
Apparent Declination
Unknown
Sunlit
N/A
Visualization observer readout
Local Sidereal Time
07:26:34
Azimuth
Unknown
Elevation
Unknown
Doppler factor
Unknown
Orbital elements
Apogee altitude
561.858 km
Perigee altitude
560.18 km
Semi-major axis
6,939.156 km
Eccentricity
0.00012
Inclination
43.0048°
RAAN
310.5681°
Arg. of periapsis
268.3827°
True anomaly
91.70155°
Mean anomaly
91.6877°
Eccentric anomaly
91.69462°
Mean motion
3.75477 °/min
Orbital period
95.88 mins
BSTAR
-0.00014039
Loading maneuver chart data...
Computing Atmospheric mass density...
Loading historical data...
Loading historical data...
Loading historical data...
Loading historical data...
Loading historical data...
Loading historical data...
Loading historical data...

Documentation

Showing up to 5 results
|